DW9097 Pedara IT current weather conditions

sailwx.info

Wind from 260 at 0 knots gusting 6

Air temperature 18.3° C
Dewpoint 9.7° C

Last reported at 2020-Sep-28 15:56 UTC.
Time now 2020-Sep-28 16:26 UTC

Location: N 37°37' E 015°03'.
View on Google Maps.

See reports from other nearby stations

  
Tides and Currents Weather Stations Pressure Air Temp Water Temp Dewpoint Dewpoint Depression Visibility Wind Speed Wind Dir Waves Ship Positions
date/time (UTC)wind fromknots sea level pressurealtimeterstation pressurevisibilityair tempwater tempwave heightnotes
2020-Sep-28 15:56 260 0 gusting 6 18.3
2020-Sep-28 15:51 262 0 gusting 6 18.3
2020-Sep-28 15:46 253 0 gusting 4 18.3
2020-Sep-28 15:41 242 0 gusting 4 18.3
2020-Sep-28 15:36 252 0 gusting 4 18.9
2020-Sep-28 15:31 266 1 gusting 4 18.9
2020-Sep-28 15:26 262 2 gusting 7 18.9
2020-Sep-28 15:21 248 2 gusting 10 18.9
2020-Sep-28 15:16 233 2 gusting 10 19.4
2020-Sep-28 15:11 242 2 gusting 10 20.0
2020-Sep-28 15:06 255 2 gusting 10 20.0
2020-Sep-28 15:01 259 1 gusting 10 20.6
2020-Sep-28 14:56 264 1 gusting 10 20.6
2020-Sep-28 14:51 253 0 gusting 10 20.6
2020-Sep-28 14:46 230 0 gusting 5 20.6
2020-Sep-28 14:41 266 1 gusting 5 20.6
2020-Sep-28 14:36 257 2 gusting 7 20.0
2020-Sep-28 14:31 243 2 gusting 7 19.4
2020-Sep-28 14:26 246 2 gusting 7 19.4
2020-Sep-28 14:21 254 3 gusting 12 20.0
2020-Sep-28 14:16 249 2 gusting 12 20.0
2020-Sep-28 14:11 237 1 gusting 11 20.6
2020-Sep-28 14:06 231 1 gusting 11 20.6
2020-Sep-28 14:01 265 0 gusting 7 20.6
2020-Sep-28 13:56 270 1 gusting 7 20.0
2020-Sep-28 13:51 264 2 gusting 7 20.6
2020-Sep-28 13:46 256 1 gusting 7 20.6
2020-Sep-28 13:41 243 1 gusting 6 21.1
2020-Sep-28 13:36 241 1 gusting 6 21.1
2020-Sep-28 13:31 252 2 gusting 10 21.7
2020-Sep-28 13:26 249 2 gusting 10 21.1
2020-Sep-28 13:21 250 3 gusting 8 21.1
2020-Sep-28 13:16 252 3 gusting 8 21.1
2020-Sep-28 13:11 258 3 gusting 11 21.1
2020-Sep-28 13:06 256 3 gusting 11 21.1
2020-Sep-28 13:01 256 2 gusting 10 20.6
2020-Sep-28 12:56 254 2 gusting 12 21.1
2020-Sep-28 12:51 249 2 gusting 12 21.1
2020-Sep-28 12:46 250 2 gusting 7 21.1
2020-Sep-28 12:41 257 3 gusting 8 21.1
2020-Sep-28 12:36 256 3 gusting 14 20.6
2020-Sep-28 12:31 256 2 gusting 14 20.6
2020-Sep-28 12:26 270 1 gusting 13 20.6
2020-Sep-28 12:21 269 2 gusting 7 20.6
2020-Sep-28 12:16 257 2 gusting 15 20.6
2020-Sep-28 12:11 257 2 gusting 15 20.6
2020-Sep-28 12:06 255 2 gusting 12 20.6
2020-Sep-28 12:01 253 1 gusting 12 20.6
2020-Sep-28 11:56 250 2 gusting 12 20.6
2020-Sep-28 11:51 254 3 gusting 10 20.6
2020-Sep-28 11:46 253 3 gusting 11 20.6
2020-Sep-28 11:41 254 3 gusting 11 20.6
2020-Sep-28 11:36 251 3 gusting 10 20.0
2020-Sep-28 11:31 244 3 gusting 8 20.6
2020-Sep-28 11:26 240 2 gusting 8 20.0
2020-Sep-28 11:21 239 2 gusting 8 20.0
2020-Sep-28 11:16 240 3 gusting 9 20.6
2020-Sep-28 11:11 239 3 gusting 12 20.0
2020-Sep-28 11:06 247 3 gusting 12 19.4
2020-Sep-28 11:01 250 3 gusting 11 20.0
2020-Sep-28 10:56 245 3 gusting 11 19.4
2020-Sep-28 10:51 251 3 gusting 11 19.4
2020-Sep-28 10:46 251 3 gusting 13 19.4
2020-Sep-28 10:41 241 3 gusting 13 19.4
2020-Sep-28 10:36 239 3 gusting 10 19.4
2020-Sep-28 10:31 247 4 gusting 9 19.4
2020-Sep-28 10:26 252 4 gusting 10 19.4
2020-Sep-28 10:21 245 5 gusting 11 18.9
2020-Sep-28 10:16 243 5 gusting 13 18.3
2020-Sep-28 10:11 244 3 gusting 13 18.3
2020-Sep-28 10:06 248 4 gusting 11 18.9
2020-Sep-28 10:01 247 4 gusting 17 18.9
2020-Sep-28 09:56 251 4 gusting 17 18.3
2020-Sep-28 09:51 257 5 gusting 15 18.3
2020-Sep-28 09:46 251 5 gusting 16 18.3
2020-Sep-28 09:41 251 6 gusting 16 17.8
2020-Sep-28 09:36 251 6 gusting 14 17.8
2020-Sep-28 09:31 244 5 gusting 14 17.8
2020-Sep-28 09:26 238 5 gusting 13 17.8
2020-Sep-28 09:21 246 4 gusting 13 17.8
2020-Sep-28 09:16 250 4 gusting 13 17.8
2020-Sep-28 09:11 258 5 gusting 13 18.3
2020-Sep-28 09:06 257 5 gusting 14 17.8
2020-Sep-28 09:01 250 4 gusting 14 17.8
2020-Sep-28 08:56 251 3 gusting 13 17.8
2020-Sep-28 08:51 255 3 gusting 12 18.3
2020-Sep-28 08:46 256 4 gusting 11 18.3
2020-Sep-28 08:41 259 3 gusting 11 17.8
2020-Sep-28 08:36 263 3 gusting 10 17.8
2020-Sep-28 08:31 257 3 gusting 11 17.8
2020-Sep-28 08:26 246 2 gusting 11 17.8
2020-Sep-28 08:21 243 2 gusting 10 18.3
2020-Sep-28 08:16 250 2 gusting 11 17.8
2020-Sep-28 08:11 249 2 gusting 11 17.8
2020-Sep-28 08:06 247 2 gusting 10 17.8
2020-Sep-28 08:01 251 2 gusting 10 17.8
2020-Sep-28 07:56 255 2 gusting 10 17.8
2020-Sep-28 07:51 260 1 gusting 8 17.8
2020-Sep-28 07:46 270 1 gusting 7 17.8
2020-Sep-28 07:41 270 2 gusting 7 17.8
2020-Sep-28 07:36 258 2 gusting 8 17.8
2020-Sep-28 07:26 261 0 gusting 7 17.2
2020-Sep-28 07:21 272 1 gusting 7 17.8
2020-Sep-28 07:16 276 1 gusting 6 17.2
2020-Sep-28 07:11 266 1 gusting 7 17.2
2020-Sep-28 07:06 260 1 gusting 8 16.7
2020-Sep-28 07:01 254 1 gusting 8 16.7
2020-Sep-28 06:56 248 1 gusting 7 16.7
2020-Sep-28 06:51 254 1 gusting 6 16.7
2020-Sep-28 06:46 258 0 gusting 6 16.7
2020-Sep-28 06:41 258 0 gusting 4 16.7
2020-Sep-28 06:36 16.1
2020-Sep-28 06:31 15.6
2020-Sep-28 06:26 15.0
2020-Sep-28 06:21 14.4
2020-Sep-28 06:16 13.9
2020-Sep-28 06:11 018 0 gusting 1 12.8
2020-Sep-28 06:06 017 0 gusting 3 11.1
2020-Sep-28 06:01 018 0 gusting 3 11.1
2020-Sep-28 05:56 015 0 gusting 4 11.1
2020-Sep-28 05:51 10.6
2020-Sep-28 05:46 10.6
2020-Sep-28 05:41 10.6
2020-Sep-28 05:36 10.6
2020-Sep-28 05:31 10.6
2020-Sep-28 05:26 10.6
2020-Sep-28 05:21 10.6
2020-Sep-28 05:16 10.6
2020-Sep-28 05:11 11.1
2020-Sep-28 05:06 11.1
2020-Sep-28 05:01 11.1
2020-Sep-28 04:56 11.1
2020-Sep-28 04:51 264 0 gusting 1 11.1
2020-Sep-28 04:46 250 0 gusting 4 11.1
2020-Sep-28 04:41 238 0 gusting 4 11.1
2020-Sep-28 04:36 251 0 gusting 6 11.1
2020-Sep-28 04:31 269 0 gusting 6 11.1
2020-Sep-28 04:26 259 0 gusting 7 10.6
2020-Sep-28 04:21 256 10.6
2020-Sep-28 04:16 10.6
2020-Sep-28 04:11 10.6
2020-Sep-28 04:06 11.1
2020-Sep-28 04:01 11.1
2020-Sep-28 03:56 11.7
2020-Sep-28 03:51 11.7
2020-Sep-28 03:46 11.7
2020-Sep-28 03:41 12.2
2020-Sep-28 03:36 12.2
2020-Sep-28 03:31 12.2
2020-Sep-28 03:26 12.2
2020-Sep-28 03:21 12.8
2020-Sep-28 03:16 12.8
2020-Sep-28 03:11 12.8
2020-Sep-28 03:06 12.8
2020-Sep-28 03:01 13.3
2020-Sep-28 02:56 13.3
2020-Sep-28 02:51 13.3
2020-Sep-28 02:46 13.3
2020-Sep-28 02:41 13.3
2020-Sep-28 02:36 13.9
2020-Sep-28 02:31 13.9
2020-Sep-28 02:26 14.4
2020-Sep-28 02:21 14.4
2020-Sep-28 02:16 14.4
2020-Sep-28 02:11 14.4
2020-Sep-28 02:06 14.4
2020-Sep-28 02:01 14.4
2020-Sep-28 01:56 14.4
2020-Sep-28 01:51 14.4
2020-Sep-28 01:46 14.4
2020-Sep-28 01:41 14.4
2020-Sep-28 01:36 13.9
2020-Sep-28 01:31 13.9
2020-Sep-28 01:26 13.9
2020-Sep-28 01:21 13.9
2020-Sep-28 01:16 13.3
2020-Sep-28 01:11 13.3
2020-Sep-28 01:06 13.3
2020-Sep-28 01:01 13.3
2020-Sep-28 00:56 13.3
2020-Sep-28 00:51 13.3
2020-Sep-28 00:46 13.3
2020-Sep-28 00:41 13.3
2020-Sep-28 00:36 12.8
2020-Sep-28 00:31 12.8
2020-Sep-28 00:26 12.8
2020-Sep-28 00:21 13.3
2020-Sep-28 00:16 13.3
2020-Sep-28 00:11 13.3
2020-Sep-28 00:06 12.8
2020-Sep-28 00:01 12.8
2020-Sep-27 23:56 12.8
2020-Sep-27 23:51 12.2
2020-Sep-27 23:46 12.2
2020-Sep-27 23:41 11.7
2020-Sep-27 23:36 11.7
2020-Sep-27 23:31 11.7
2020-Sep-27 23:26 11.7
2020-Sep-27 23:21 11.7
2020-Sep-27 23:16 11.7
2020-Sep-27 23:11 11.7
2020-Sep-27 23:06 12.2
2020-Sep-27 23:01 12.2
2020-Sep-27 22:56 12.2
2020-Sep-27 22:51 12.2
2020-Sep-27 22:46 12.8
2020-Sep-27 22:41 12.8
2020-Sep-27 22:36 12.8
2020-Sep-27 22:31 12.8
2020-Sep-27 22:26 13.3
2020-Sep-27 22:21 13.3
2020-Sep-27 22:16 12.8
2020-Sep-27 22:11 12.8
2020-Sep-27 22:06 022 12.8
2020-Sep-27 22:01 023 0 gusting 1 12.8
2020-Sep-27 21:56 040 0 gusting 2 12.8
2020-Sep-27 21:51 056 12.8
2020-Sep-27 21:46 12.8
2020-Sep-27 21:41 13.3
2020-Sep-27 21:36 13.3
2020-Sep-27 21:31 074 13.3
2020-Sep-27 21:26 062 0 gusting 2 13.3
2020-Sep-27 21:21 024 0 gusting 2 13.3
2020-Sep-27 21:16 006 0 gusting 5 12.8
2020-Sep-27 21:11 350 12.8
2020-Sep-27 21:06 13.3
2020-Sep-27 21:01 13.3
2020-Sep-27 20:56 13.3
2020-Sep-27 20:51 13.9
2020-Sep-27 20:46 13.9
2020-Sep-27 20:41 13.9
2020-Sep-27 20:36 13.9
2020-Sep-27 20:31 270 14.4
2020-Sep-27 20:26 270 14.4
2020-Sep-27 20:21 274 14.4
2020-Sep-27 20:16 14.4
2020-Sep-27 20:11 14.4
2020-Sep-27 20:06 15.0
2020-Sep-27 20:01 15.0
2020-Sep-27 19:56 15.0
2020-Sep-27 19:51 15.6
2020-Sep-27 19:46 226 15.6
2020-Sep-27 19:41 227 0 gusting 2 15.6
2020-Sep-27 19:36 265 1 gusting 6 15.6
2020-Sep-27 19:31 259 1 gusting 6 15.6
2020-Sep-27 19:26 258 1 gusting 8 15.6
2020-Sep-27 19:21 261 1 gusting 8 15.6
2020-Sep-27 19:16 257 1 gusting 6 15.6
2020-Sep-27 19:11 252 0 gusting 6 15.6
2020-Sep-27 19:06 250 0 gusting 6 15.0
2020-Sep-27 19:01 258 0 gusting 6 15.0
2020-Sep-27 18:56 259 0 gusting 4 15.0
2020-Sep-27 18:51 257 0 gusting 5 15.0
2020-Sep-27 18:46 254 0 gusting 5 15.0
2020-Sep-27 18:41 254 0 gusting 3 15.0
2020-Sep-27 18:36 260 0 gusting 4 15.0
2020-Sep-27 18:31 282 0 gusting 4 14.4
2020-Sep-27 18:26 309 0 gusting 3 15.0
2020-Sep-27 18:21 307 0 gusting 3 15.0
2020-Sep-27 18:16 280 0 gusting 3 15.6
2020-Sep-27 18:11 256 0 gusting 3 15.6
2020-Sep-27 18:06 249 0 gusting 4 15.6
2020-Sep-27 18:01 258 0 gusting 4 15.6
2020-Sep-27 17:56 264 0 gusting 5 15.6
2020-Sep-27 17:51 258 1 gusting 5 15.6
2020-Sep-27 17:46 256 1 gusting 6 15.6
2020-Sep-27 17:41 255 1 gusting 6 15.6
2020-Sep-27 17:36 252 1 gusting 6 15.6
2020-Sep-27 17:31 242 1 gusting 6 15.6
2020-Sep-27 17:26 241 1 gusting 6 15.6
2020-Sep-27 17:21 247 1 gusting 6 15.6
2020-Sep-27 17:16 249 1 gusting 6 15.6
2020-Sep-27 17:11 248 1 gusting 8 15.6
2020-Sep-27 17:06 252 1 gusting 8 15.6
2020-Sep-27 17:01 260 2 gusting 9 15.6
2020-Sep-27 16:56 255 3 gusting 9 15.6
2020-Sep-27 16:51 253 3 gusting 9 16.1
2020-Sep-27 16:46 247 3 gusting 9 16.1
2020-Sep-27 16:41 232 4 gusting 9 16.1
2020-Sep-27 16:36 222 5 gusting 9 16.1
2020-Sep-27 16:31 220 5 gusting 9 16.1
2020-Sep-27 16:26 219 5 gusting 14 16.7
2020-Sep-27 16:21 224 6 gusting 14 16.7
2020-Sep-27 16:16 223 6 gusting 13 16.7
2020-Sep-27 16:11 216 6 gusting 13 17.2
2020-Sep-27 16:06 216 6 gusting 13 17.8
2020-Sep-27 16:01 218 6 gusting 13 18.3
2020-Sep-27 15:56 220 6 gusting 11 18.3
2020-Sep-27 15:51 221 6 gusting 12 18.3
2020-Sep-27 15:46 220 6 gusting 12 18.3
2020-Sep-27 15:41 220 5 gusting 9 18.3
2020-Sep-27 15:36 218 5 gusting 11 18.9
2020-Sep-27 15:31 214 5 gusting 11 18.9
2020-Sep-27 15:26 215 4 gusting 10 18.9
2020-Sep-27 15:21 217 3 gusting 10 18.3
2020-Sep-27 15:16 220 2 gusting 8 18.3
2020-Sep-27 15:11 235 0 gusting 6 18.3
2020-Sep-27 15:06 248 0 gusting 5 18.3
2020-Sep-27 15:01 275 18.3
2020-Sep-27 14:56 296 0 gusting 1 18.3
2020-Sep-27 14:51 255 1 gusting 5 18.3
2020-Sep-27 14:46 251 1 gusting 5 18.3
2020-Sep-27 14:41 243 2 gusting 6 18.3
2020-Sep-27 14:36 232 2 gusting 8 18.3
2020-Sep-27 14:31 235 1 gusting 8 18.3
2020-Sep-27 14:26 249 1 gusting 6 18.9
2020-Sep-27 14:21 246 1 gusting 6 18.9
2020-Sep-27 14:16 247 1 gusting 7 19.4
2020-Sep-27 14:11 243 1 gusting 7 19.4
2020-Sep-27 14:06 243 2 gusting 7 19.4
2020-Sep-27 14:01 254 2 gusting 9 20.0
2020-Sep-27 13:56 256 2 gusting 9 20.0
2020-Sep-27 13:51 241 2 gusting 6 20.0
2020-Sep-27 13:46 244 2 gusting 7 20.0
2020-Sep-27 13:41 255 3 gusting 7 20.0
2020-Sep-27 13:36 249 3 gusting 8 20.0
2020-Sep-27 13:31 249 3 gusting 9 19.4
2020-Sep-27 13:26 249 3 gusting 9 19.4
2020-Sep-27 13:21 252 3 gusting 9 19.4
2020-Sep-27 13:16 255 3 gusting 8 19.4
2020-Sep-27 13:11 252 3 gusting 9 19.4
2020-Sep-27 13:06 252 3 gusting 9 18.9
2020-Sep-27 13:01 250 4 gusting 9 19.4
2020-Sep-27 12:56 256 4 gusting 10 19.4
2020-Sep-27 12:51 255 4 gusting 10 18.9
2020-Sep-27 12:46 248 4 gusting 10 19.4
2020-Sep-27 12:41 242 4 gusting 10 18.9
2020-Sep-27 12:36 238 4 gusting 10 19.4
2020-Sep-27 12:31 246 4 gusting 12 19.4
2020-Sep-27 12:26 249 4 gusting 13 20.0
2020-Sep-27 12:21 242 5 gusting 13 20.6
2020-Sep-27 12:16 231 4 gusting 12 20.0
2020-Sep-27 12:11 231 4 gusting 12 20.0
2020-Sep-27 12:06 244 4 gusting 10 19.4
2020-Sep-27 12:01 248 3 gusting 10 19.4
2020-Sep-27 11:56 243 3 gusting 12 18.3
2020-Sep-27 11:51 245 4 gusting 12 18.3
2020-Sep-27 11:46 249 5 gusting 11 18.3
2020-Sep-27 11:41 250 5 gusting 11 18.3
2020-Sep-27 11:36 247 5 gusting 12 18.3
2020-Sep-27 11:31 245 4 gusting 14 18.9
2020-Sep-27 11:26 250 4 gusting 14 19.4
2020-Sep-27 11:21 246 5 gusting 10 19.4
2020-Sep-27 11:16 238 4 gusting 13 19.4
2020-Sep-27 11:11 235 3 gusting 13 19.4
2020-Sep-27 11:06 239 3 gusting 12 19.4
2020-Sep-27 11:01 236 4 gusting 11 19.4
2020-Sep-27 10:56 236 5 gusting 11 19.4
2020-Sep-27 10:51 239 5 gusting 12 19.4
2020-Sep-27 10:46 241 4 gusting 12 18.9
2020-Sep-27 10:41 250 4 gusting 13 18.9
2020-Sep-27 10:36 255 4 gusting 13 19.4
2020-Sep-27 10:31 253 4 gusting 13 18.9
2020-Sep-27 10:26 255 3 gusting 15 17.8
2020-Sep-27 10:21 257 3 gusting 15 17.2
2020-Sep-27 10:16 255 3 gusting 10 17.2
2020-Sep-27 10:11 250 4 gusting 10 16.7
2020-Sep-27 10:06 249 4 gusting 11 16.7
2020-Sep-27 10:01 253 5 gusting 13 17.2
2020-Sep-27 09:56 250 5 gusting 13 17.2
2020-Sep-27 09:51 242 4 gusting 12 17.8
2020-Sep-27 09:46 244 4 gusting 12 17.8
2020-Sep-27 09:41 248 4 gusting 12 17.2
2020-Sep-27 09:36 245 5 gusting 10 17.2
2020-Sep-27 09:31 246 5 gusting 13 17.2
2020-Sep-27 09:26 250 4 gusting 13 17.2
2020-Sep-27 09:21 253 5 gusting 13 17.2
2020-Sep-27 09:16 248 5 gusting 13 17.2
2020-Sep-27 09:11 242 4 gusting 13 17.2
2020-Sep-27 09:06 244 4 gusting 12 17.2
2020-Sep-27 09:01 243 4 gusting 12 17.2
2020-Sep-27 08:56 243 3 gusting 12 17.2
2020-Sep-27 08:51 253 2 gusting 12 16.7
2020-Sep-27 08:46 257 2 gusting 11 16.7
2020-Sep-27 08:41 250 3 gusting 12 16.7
2020-Sep-27 08:36 244 2 gusting 12 16.7
2020-Sep-27 08:31 237 2 gusting 9 16.7
2020-Sep-27 08:26 250 2 gusting 7 16.7
2020-Sep-27 08:21 270 3 gusting 10 17.2
2020-Sep-27 08:16 261 3 gusting 10 17.2
2020-Sep-27 08:11 255 4 gusting 8 17.2
2020-Sep-27 08:06 244 4 gusting 9 17.2
2020-Sep-27 08:01 241 4 gusting 13 17.8
2020-Sep-27 07:56 245 5 gusting 13 17.8
2020-Sep-27 07:51 243 5 gusting 13 17.8
2020-Sep-27 07:46 242 4 gusting 13 17.8
2020-Sep-27 07:41 242 3 gusting 10 17.2
2020-Sep-27 07:36 246 3 gusting 10 17.2
2020-Sep-27 07:31 245 2 gusting 10 17.2
2020-Sep-27 07:26 252 2 gusting 9 17.2
2020-Sep-27 07:21 261 3 gusting 9 17.2
2020-Sep-27 07:16 256 3 gusting 10 17.2
2020-Sep-27 07:11 246 3 gusting 10 16.7
2020-Sep-27 07:06 243 2 gusting 10 16.7
2020-Sep-27 07:01 255 1 gusting 6 16.7
2020-Sep-27 06:56 259 2 gusting 6 16.7
2020-Sep-27 06:51 258 3 gusting 9 16.7
2020-Sep-27 06:46 247 2 gusting 9 16.1
2020-Sep-27 06:41 240 2 gusting 9 15.6
2020-Sep-27 06:36 255 2 gusting 9 15.6
2020-Sep-27 06:31 258 2 gusting 9 15.6
2020-Sep-27 06:26 256 1 gusting 9 15.6
2020-Sep-27 06:21 254 0 gusting 7 15.6
2020-Sep-27 06:16 253 0 gusting 4 15.0
2020-Sep-27 06:11 252 0 gusting 4 14.4
2020-Sep-27 06:06 234 0 gusting 5 13.9
2020-Sep-27 06:01 247 0 gusting 5 13.3
2020-Sep-27 05:56 264 0 gusting 3 13.3
2020-Sep-27 05:51 004 0 gusting 3 13.3
2020-Sep-27 05:46 006 0 gusting 4 12.8
2020-Sep-27 05:41 353 0 gusting 4 12.8
2020-Sep-27 05:36 345 0 gusting 4 12.8
2020-Sep-27 05:31 346 0 gusting 3 12.8
2020-Sep-27 05:26 309 12.2
2020-Sep-27 05:21 12.2
2020-Sep-27 05:16 11.7
2020-Sep-27 05:11 11.7
2020-Sep-27 05:06 11.1
2020-Sep-27 05:01 11.1
2020-Sep-27 04:56 11.1
2020-Sep-27 04:51 11.1
2020-Sep-27 04:46 11.7
2020-Sep-27 04:41 11.7
2020-Sep-27 04:36 11.7
2020-Sep-27 04:31 12.2
2020-Sep-27 04:26 12.2
2020-Sep-27 04:21 12.2
2020-Sep-27 04:16 12.2
2020-Sep-27 04:11 345 0 gusting 0 12.2
2020-Sep-27 04:06 350 0 gusting 3 12.2
2020-Sep-27 04:01 351 0 gusting 3 12.2
2020-Sep-27 03:56 001 0 gusting 3 12.2
2020-Sep-27 03:51 337 0 gusting 3 12.2
2020-Sep-27 03:46 181 0 gusting 3 11.7
2020-Sep-27 03:41 11.7
2020-Sep-27 03:36 11.7
2020-Sep-27 03:31 12.2
2020-Sep-27 03:26 12.2
2020-Sep-27 03:21 12.2
2020-Sep-27 03:16 271 12.2
2020-Sep-27 03:11 272 12.2
2020-Sep-27 03:06 12.2
2020-Sep-27 03:01 12.2
2020-Sep-27 02:56 12.2
2020-Sep-27 02:51 12.2
2020-Sep-27 02:46 12.2
2020-Sep-27 02:41 12.2
2020-Sep-27 02:36 261 12.2
2020-Sep-27 02:31 261 0 gusting 2 12.2
2020-Sep-27 02:26 253 0 gusting 4 12.8
2020-Sep-27 02:21 252 0 gusting 4 12.8
2020-Sep-27 02:16 255 0 gusting 4 12.8
2020-Sep-27 02:11 12.8
2020-Sep-27 02:06 12.8
2020-Sep-27 02:01 12.8
2020-Sep-27 01:56 12.8
2020-Sep-27 01:51 12.8
2020-Sep-27 01:46 355 0 gusting 1 12.8
2020-Sep-27 01:41 355 0 gusting 2 12.8
2020-Sep-27 01:36 356 0 gusting 3 12.8
2020-Sep-27 01:31 357 0 gusting 3 13.3
2020-Sep-27 01:26 358 0 gusting 3 13.3
2020-Sep-27 01:21 002 0 gusting 3 13.3
2020-Sep-27 01:16 008 1 gusting 2 13.3
2020-Sep-27 01:11 008 0 gusting 3 13.3
2020-Sep-27 01:06 009 1 gusting 3 13.3
2020-Sep-27 01:01 009 2 gusting 3 13.9
2020-Sep-27 00:56 010 2 gusting 4 13.9
2020-Sep-27 00:51 011 1 gusting 7 13.9
2020-Sep-27 00:46 010 1 gusting 7 14.4
2020-Sep-27 00:41 010 2 gusting 6 14.4
2020-Sep-27 00:36 008 2 gusting 6 14.4
2020-Sep-27 00:31 002 1 gusting 7 15.0
2020-Sep-27 00:26 354 1 gusting 7 15.0
2020-Sep-27 00:21 357 1 gusting 9 15.0
2020-Sep-27 00:16 009 2 gusting 9 15.6
2020-Sep-27 00:11 354 2 gusting 14 15.6
2020-Sep-27 00:06 356 3 gusting 14 15.6
2020-Sep-27 00:01 343 3 gusting 14 15.6
2020-Sep-26 23:56 336 3 gusting 13 15.6
2020-Sep-26 23:51 353 3 gusting 13 15.0
2020-Sep-26 23:46 351 2 gusting 10 15.0
2020-Sep-26 23:41 327 2 gusting 6 15.0
2020-Sep-26 23:36 292 2 gusting 7 15.6
2020-Sep-26 23:31 269 2 gusting 8 15.0
2020-Sep-26 23:26 257 2 gusting 9 15.0
2020-Sep-26 23:21 265 1 gusting 9 15.6
2020-Sep-26 23:16 283 1 gusting 8 15.6
2020-Sep-26 23:11 344 1 gusting 7 15.0
2020-Sep-26 23:06 003 1 gusting 8 15.0
2020-Sep-26 23:01 351 1 gusting 8 15.0
2020-Sep-26 22:56 347 1 gusting 5 15.0
2020-Sep-26 22:51 339 1 gusting 7 15.0
2020-Sep-26 22:46 294 1 gusting 13 15.0
2020-Sep-26 22:41 295 2 gusting 13 15.0
2020-Sep-26 22:36 304 2 gusting 7 14.4
2020-Sep-26 22:31 286 1 gusting 12 14.4
2020-Sep-26 22:26 301 1 gusting 12 14.4
2020-Sep-26 22:21 330 1 gusting 11 14.4
2020-Sep-26 22:16 309 1 gusting 11 14.4
2020-Sep-26 22:11 270 1 gusting 9 13.9
2020-Sep-26 22:06 263 1 gusting 7 13.9
2020-Sep-26 22:01 256 1 gusting 7 13.9
2020-Sep-26 21:56 266 1 gusting 8 13.9
2020-Sep-26 21:51 269 1 gusting 8 13.9
2020-Sep-26 21:46 278 1 gusting 5 13.9
2020-Sep-26 21:41 270 2 gusting 6 13.9
2020-Sep-26 21:36 261 3 gusting 9 14.4
2020-Sep-26 21:31 260 3 gusting 10 14.4
2020-Sep-26 21:26 252 2 gusting 10 14.4
2020-Sep-26 21:21 241 1 gusting 9 14.4
2020-Sep-26 21:16 231 0 gusting 6 14.4
2020-Sep-26 21:11 235 0 gusting 5 14.4
2020-Sep-26 21:06 257 1 gusting 6 14.4
2020-Sep-26 21:01 257 1 gusting 6 14.4
2020-Sep-26 20:56 280 0 gusting 6 14.4
2020-Sep-26 20:51 283 1 gusting 6 14.4
2020-Sep-26 20:46 263 1 gusting 4 14.4
2020-Sep-26 20:41 253 2 gusting 8 14.4
2020-Sep-26 20:36 249 3 gusting 10 14.4
2020-Sep-26 20:31 240 3 gusting 10 14.4
2020-Sep-26 20:26 246 2 gusting 9 14.4
2020-Sep-26 20:21 257 1 gusting 9 14.4
2020-Sep-26 20:16 260 1 gusting 6 14.4
2020-Sep-26 20:11 257 1 gusting 6 15.0
2020-Sep-26 20:06 260 2 gusting 7 15.0
2020-Sep-26 20:01 259 3 gusting 9 15.0
2020-Sep-26 19:56 259 3 gusting 11 15.0
2020-Sep-26 19:51 253 3 gusting 11 15.0
2020-Sep-26 19:46 247 2 gusting 9 15.0
2020-Sep-26 19:41 252 1 gusting 7 15.0
2020-Sep-26 19:36 252 1 gusting 7 15.0
2020-Sep-26 19:31 268 0 gusting 5 15.0
2020-Sep-26 19:26 268 0 gusting 4 15.0
2020-Sep-26 19:21 265 0 gusting 2 15.0
2020-Sep-26 19:16 292 0 gusting 3 15.0
2020-Sep-26 19:11 282 0 gusting 3 15.0
2020-Sep-26 19:06 255 0 gusting 6 15.6
2020-Sep-26 19:01 251 1 gusting 6 15.6
2020-Sep-26 18:56 254 1 gusting 6 15.6
2020-Sep-26 18:51 257 0 gusting 6 15.6
2020-Sep-26 18:46 260 0 gusting 6 15.6
2020-Sep-26 18:41 242 1 gusting 6 15.6
2020-Sep-26 18:36 244 1 gusting 6 15.6
2020-Sep-26 18:31 254 1 gusting 7 15.6
2020-Sep-26 18:26 254 1 gusting 7 15.6
2020-Sep-26 18:21 257 1 gusting 7 15.6
2020-Sep-26 18:16 251 1 gusting 8 15.6
2020-Sep-26 18:11 251 1 gusting 8 15.6
2020-Sep-26 18:06 264 0 gusting 7 16.1
2020-Sep-26 18:01 269 16.1
2020-Sep-26 17:56 16.1
2020-Sep-26 17:51 16.1
2020-Sep-26 17:46 16.1
2020-Sep-26 17:41 16.1
2020-Sep-26 17:36 16.1
2020-Sep-26 17:31 16.1
2020-Sep-26 17:26 16.1
2020-Sep-26 17:21 014 16.1
2020-Sep-26 17:16 011 0 gusting 4 16.1
2020-Sep-26 17:11 359 1 gusting 3 16.1
2020-Sep-26 17:06 015 1 gusting 6 16.7
2020-Sep-26 17:01 022 0 gusting 6 16.7
2020-Sep-26 16:56 016 0 gusting 6 16.7
2020-Sep-26 16:51 006 0 gusting 7 16.7
2020-Sep-26 16:46 010 0 gusting 7 16.7
2020-Sep-26 16:41 006 1 gusting 7 17.2
2020-Sep-26 16:36 353 1 gusting 7 17.2
2020-Sep-26 16:31 003 2 gusting 9 17.2
2020-Sep-26 16:26 014 2 gusting 9 17.2
2020-Sep-26 16:21 015 1 gusting 13 17.8
2020-Sep-26 16:16 012 0 gusting 13 17.8
2020-Sep-26 16:11 011 0 gusting 6 18.3
2020-Sep-26 16:06 003 2 gusting 6 18.3
2020-Sep-26 16:01 005 3 gusting 7 18.3